Location: Unspecified
(35.6961°N, 0.0000°E)
Time: 02:20:52
(UTC+00:00)

S-56A Canister/Altair - All Passes

Search period start: 27 May 2019 00:00
Search period end: 06 June 2019 00:00
Orbit: 633 x 2499 km, 38.9° (Epoch: 26 May)

Date Brightness Start Highest point End Pass type
(mag) Time Alt. Az. Time Alt. Az. Time Alt. Az.
27 May - 00:08:27 10° WSW 00:13:30 73° SSE 00:20:45 10° ENE visible
27 May - 02:11:43 10° W 02:17:58 70° N 02:27:38 10° E visible
27 May - 04:15:16 10° WNW 04:23:15 89° SSW 04:35:34 10° ESE visible
27 May - 06:19:20 10° WNW 06:28:43 48° SSW 06:41:44 10° SE daylight
27 May - 08:26:55 10° W 08:34:05 17° SW 08:42:12 10° S daylight
27 May - 21:36:41 10° SSE 21:38:15 11° SE 21:39:52 10° ESE night (unlit)
27 May - 23:36:10 10° SW 23:40:56 64° SSE 23:47:30 10° ENE visible
28 May - 01:39:18 10° W 01:45:08 70° N 01:54:00 10° E visible
28 May - 03:42:48 10° WNW 03:50:13 86° NNE 04:01:46 10° ESE visible
28 May - 05:46:38 10° WNW 05:55:32 51° SSW 06:08:16 10° SE daylight
28 May - 07:53:18 10° W 08:00:52 20° SW 08:09:46 10° S daylight
28 May - 23:03:54 10° SW 23:08:25 54° SSE 23:14:20 10° ENE visible
29 May - 01:06:55 10° W 01:12:22 70° N 01:20:29 10° ENE visible
29 May - 03:10:22 10° WNW 03:17:15 82° NNE 03:28:01 10° ESE visible
29 May - 05:14:00 10° WNW 05:22:24 55° SSW 05:34:46 10° SE daylight
29 May - 07:19:58 10° W 07:27:41 22° SW 07:37:06 10° S daylight
29 May - 22:31:39 10° SW 22:35:56 44° SSE 22:41:15 10° ENE visible
30 May - 00:34:31 10° W 00:39:39 72° N 00:47:04 10° ENE visible
30 May - 02:37:56 10° WNW 02:44:21 78° NNE 02:54:17 10° E visible
30 May - 04:41:26 10° WNW 04:49:20 59° SSW 05:01:13 10° SE daylight
30 May - 06:46:49 10° W 06:54:32 24° SW 07:04:16 10° S daylight
30 May - 21:59:24 10° SW 22:03:30 36° SSE 22:08:14 10° E night (unlit)
31 May - 00:02:08 10° W 00:06:59 74° N 00:13:47 10° ENE visible
31 May - 02:05:34 10° WNW 02:11:31 74° N 02:20:39 10° E visible
31 May - 04:08:56 10° WNW 04:16:19 64° SSW 04:27:38 10° SE visible
31 May - 06:13:49 10° W 06:21:25 26° SW 06:31:18 10° SSE daylight
31 May - 21:27:12 10° SSW 21:31:03 29° SE 21:35:16 10° E night (unlit)
31 May - 23:29:43 10° W 23:34:23 79° NNW 23:40:36 10° ENE visible
01 Jun - 01:33:10 10° WNW 01:38:44 70° N 01:47:05 10° E visible
01 Jun - 03:36:28 10° WNW 03:43:23 68° SSW 03:54:03 10° SE visible
01 Jun - 05:40:57 10° W 05:48:19 29° SW 05:58:13 10° SSE daylight
01 Jun - 20:55:01 10° SSW 20:58:37 24° SE 21:02:20 10° E visible
01 Jun - 22:57:18 10° WSW 23:01:49 85° NNW 23:07:33 10° ENE visible
02 Jun - 01:00:48 10° WNW 01:06:01 67° N 01:13:36 10° E visible
02 Jun - 03:04:03 10° WNW 03:10:30 73° SSW 03:20:30 10° ESE visible
02 Jun - 05:08:12 10° W 05:15:18 31° SSW 05:25:05 10° SSE daylight
02 Jun - 20:22:52 10° SSW 20:26:10 20° SE 20:29:24 10° E visible
02 Jun - 22:24:52 10° WSW 22:29:18 86° SSE 22:34:36 10° ENE visible
03 Jun - 00:28:25 10° W 00:33:19 64° N 00:40:14 10° E visible
03 Jun - 02:31:39 10° WNW 02:37:42 79° SSW 02:46:58 10° ESE visible
03 Jun - 04:35:33 10° W 04:42:19 33° SSW 04:51:52 10° SSE daylight
03 Jun - 19:50:46 10° S 19:53:40 16° SE 19:56:28 10° ESE visible
03 Jun - 21:52:23 10° WSW 21:56:48 77° SSE 22:01:45 10° ENE visible
03 Jun - 23:56:01 10° W 00:00:42 62° N 00:06:59 10° E visible
04 Jun - 01:59:18 10° WNW 02:04:57 85° SSW 02:13:30 10° ESE visible
04 Jun - 04:02:58 10° W 04:09:24 36° SSW 04:18:38 10° SSE visible
04 Jun - 06:12:56 10° SW 06:14:16 10° SW 06:15:39 10° SSW daylight
04 Jun - 19:18:46 10° S 19:21:10 14° SE 19:23:25 10° ESE daylight
04 Jun - 21:19:53 10° WSW 21:24:20 66° SSE 21:28:59 10° ENE visible
04 Jun - 23:23:35 10° W 23:28:05 61° N 23:33:51 10° E visible
05 Jun - 01:26:56 10° WNW 01:32:15 89° NNE 01:40:05 10° ESE visible
05 Jun - 03:30:26 10° W 03:36:32 39° SSW 03:45:23 10° SE visible
05 Jun - 05:38:21 10° WSW 05:41:17 12° SW 05:44:31 10° SSW daylight
05 Jun - 18:46:59 10° SSE 18:48:37 11° SE 18:50:10 10° SE daylight
05 Jun - 20:47:20 10° SW 20:51:52 56° SSE 20:56:18 10° ENE visible
05 Jun - 22:51:06 10° W 22:55:31 61° N 23:00:51 10° ENE visible
